Clarksburg, WV

4:41 PM EST on November 16, 2019 (GMT -0500)
Benedum

Weather History for KCKB - September, 2019

Change the Weather History Date:

Saturday, September 14, 2019

  Actual Average Record
Temperature  
Mean Temperature 76 °F -  
Max Temperature 88 °F 78 °F 97 °F (1952)
Min Temperature 63 °F 54 °F 33 °F (1964)
Cooling Degree Days 10    
Growing Degree Days 26 (Base 50)    
Moisture  
Dew Point 61 °F    
Average Humidity 61    
Maximum Humidity 87    
Minimum Humidity 39    
Precipitation  
Precipitation 0.00 in - - ()
Sea Level Pressure  
Sea Level Pressure 30.16 in    
Wind  
Wind Speed 5 mph (West)    
Max Wind Speed 14 mph    
Max Gust Speed 25 mph    
Visibility 10 miles    
Events      
Averages and records for this station are not official NWS values.
T = Trace of Precipitation, MM = Missing Value Source: NWS Daily Summary

Daily Weather History Graph

Daily Weather History Graph

Search for Another Location

Airport or City:

Astronomy

Sep. 14, 2019 Rise Set
Actual Time 7:01 AM EDT 7:31 PM EDT
Civil Twilight 6:34 AM EDT 7:58 PM EDT
Nautical Twilight 6:02 AM EDT 8:29 PM EDT
Astronomical Twilight 5:29 AM EDT 9:02 PM EDT
Moon 8:11 PM EDT (9/14) 7:13 AM EDT (9/14)
Length of Visible Light 13h 24m
Length of Day
12h 30m
Full, 100% of the Moon is Illuminated
Sep 14
Full
Sep 21
Last Quarter
Sep 28
New
Oct 5
First Quarter
Oct 13
Full

Hourly Weather History & Observations

Time (EDT) Temp. Heat Index Dew Point Humidity Pressure Visibility Wind Dir Wind Speed Gust Speed Precip Events Conditions
12:53 AM 73.9 °F - 63.0 °F 68% 30.14 in 10.0 mi SE 5.8 mph - N/A   Clear
1:53 AM 73.0 °F - 63.0 °F 71% 30.14 in 10.0 mi SE 5.8 mph - N/A   Mostly Cloudy
2:53 AM 72.0 °F - 63.0 °F 73% 30.13 in 10.0 mi Calm Calm - N/A   Partly Cloudy
3:53 AM 71.1 °F - 63.0 °F 75% 30.13 in 10.0 mi Calm Calm - N/A   Scattered Clouds
4:53 AM 70.0 °F - 63.0 °F 78% 30.14 in 10.0 mi Calm Calm - N/A   Scattered Clouds
5:53 AM 66.9 °F - 63.0 °F 87% 30.14 in 10.0 mi Calm Calm - N/A   Partly Cloudy
6:53 AM 68.0 °F - 63.0 °F 84% 30.16 in 10.0 mi Calm Calm - N/A   Scattered Clouds
7:53 AM 70.0 °F - 63.0 °F 78% 30.17 in 10.0 mi Calm Calm - N/A   Mostly Cloudy
8:53 AM 73.0 °F - 64.0 °F 73% 30.18 in 10.0 mi South 3.5 mph - N/A   Overcast
9:53 AM 75.9 °F - 64.9 °F 69% 30.19 in 10.0 mi South 3.5 mph - N/A   Overcast
10:53 AM 81.0 °F 83.0 °F 66.0 °F 60% 30.18 in 10.0 mi SW 12.7 mph - N/A   Mostly Cloudy
11:00 AM 82.0 °F 84.1 °F 66.0 °F 58% 30.22 in 10.0 mi SW 9.2 mph - N/A   Mostly Cloudy
11:40 AM 84.9 °F 87.6 °F 66.9 °F 55% 30.21 in 10.0 mi SW 12.7 mph - N/A   Scattered Clouds
11:53 AM 86.0 °F 88.8 °F 66.9 °F 53% 30.16 in 10.0 mi SW 9.2 mph - N/A   Partly Cloudy
12:53 PM 84.0 °F 86.5 °F 66.9 °F 56% 30.16 in 10.0 mi WNW 9.2 mph - N/A   Mostly Cloudy
1:53 PM 87.1 °F 89.9 °F 66.9 °F 51% 30.14 in 10.0 mi WNW 9.2 mph 19.6 mph N/A   Partly Cloudy
2:53 PM 87.1 °F 86.7 °F 60.1 °F 40% 30.13 in 10.0 mi WNW 13.8 mph 25.3 mph N/A   Partly Cloudy
3:53 PM 87.1 °F 86.5 °F 59.0 °F 39% 30.13 in 10.0 mi WNW 11.5 mph - N/A   Clear
4:53 PM 86.0 °F 85.4 °F 59.0 °F 40% 30.12 in 10.0 mi NW 10.4 mph - N/A   Clear
5:53 PM 84.9 °F 84.2 °F 57.9 °F 40% 30.13 in 10.0 mi West 9.2 mph - N/A   Clear
6:53 PM 82.0 °F 81.6 °F 55.9 °F 41% 30.15 in 10.0 mi NW 9.2 mph - N/A   Clear
7:53 PM 75.9 °F - 54.0 °F 46% 30.17 in 10.0 mi WNW 3.5 mph - N/A   Clear
8:53 PM 71.1 °F - 54.0 °F 55% 30.18 in 10.0 mi NNW 3.5 mph - N/A   Clear
9:53 PM 68.0 °F - 54.0 °F 61% 30.20 in 10.0 mi Calm Calm - N/A   Clear
10:53 PM 64.9 °F - 55.0 °F 70% 30.20 in 10.0 mi Calm Calm - N/A   Clear
11:53 PM 63.0 °F - 55.0 °F 75% 30.20 in 10.0 mi Calm Calm - N/A   Clear